Date_Time,Julian_Date,Latitude,Longitude,Instrument_Depth,U,V,Speed,Direction
(yyyy-mm-dd hh:mn:ss UTC),(JD),(+ deg. North),(+ deg. East),(m),(cm/s),(cm/s),(cm/s),(deg True)
1983-05-04 15:00:00 UTC,2445459.125000,29.6633,-93.3933,0082,5.52,4.31,7.0000,52.0000
1983-05-04 15:30:00 UTC,2445459.145833,29.6633,-93.3933,0082,5.36,4.50,7.0000,50.0000
1983-05-04 16:00:00 UTC,2445459.166667,29.6633,-93.3933,0082,6.30,4.93,8.0000,52.0000
1983-05-04 16:30:00 UTC,2445459.187500,29.6633,-93.3933,0082,7.79,4.50,9.0000,60.0000
1983-05-04 17:00:00 UTC,2445459.208333,29.6633,-93.3933,0082,8.56,2.78,9.0000,72.0000
1983-05-04 17:30:00 UTC,2445459.229167,29.6633,-93.3933,0082,7.97,0.70,8.0000,85.0000
1983-05-04 18:00:00 UTC,2445459.250000,29.6633,-93.3933,0082,7.76,-1.94,8.0000,104.0000
1983-05-04 18:30:00 UTC,2445459.270833,29.6633,-93.3933,0082,7.06,-3.76,8.0000,118.0000
1983-05-04 19:00:00 UTC,2445459.291667,29.6633,-93.3933,0082,6.00,-3.61,7.0000,121.0000
1983-05-04 19:30:00 UTC,2445459.312500,29.6633,-93.3933,0082,6.93,-4.00,8.0000,120.0000
1983-05-04 20:00:00 UTC,2445459.333333,29.6633,-93.3933,0082,7.95,-4.23,9.0000,118.0000
1983-05-04 20:30:00 UTC,2445459.354167,29.6633,-93.3933,0082,7.13,-3.63,8.0000,117.0000
1983-05-04 21:00:00 UTC,2445459.375000,29.6633,-93.3933,0082,5.48,-2.44,6.0000,114.0000
1983-05-04 21:30:00 UTC,2445459.395833,29.6633,-93.3933,0082,4.60,-1.95,5.0000,113.0000
1983-05-04 22:00:00 UTC,2445459.416667,29.6633,-93.3933,0082,2.74,-1.22,3.0000,114.0000
1983-05-04 22:30:00 UTC,2445459.437500,29.6633,-93.3933,0082,2.72,-1.27,3.0000,115.0000
1983-05-04 23:00:00 UTC,2445459.458333,29.6633,-93.3933,0082,4.67,-1.79,5.0000,111.0000
1983-05-04 23:30:00 UTC,2445459.479167,29.6633,-93.3933,0082,5.99,0.42,6.0000,86.0000
1983-05-05 00:00:00 UTC,2445459.500000,29.6633,-93.3933,0082,4.59,6.55,8.0000,35.0000
1983-05-05 00:30:00 UTC,2445459.520833,29.6633,-93.3933,0082,2.59,9.66,10.0000,15.0000
1983-05-05 01:00:00 UTC,2445459.541667,29.6633,-93.3933,0082,3.09,9.51,10.0000,18.0000
1983-05-05 01:30:00 UTC,2445459.562500,29.6633,-93.3933,0082,3.51,7.19,8.0000,26.0000
1983-05-05 02:00:00 UTC,2445459.583333,29.6633,-93.3933,0082,4.00,6.93,8.0000,30.0000
1983-05-05 02:30:00 UTC,2445459.604167,29.6633,-93.3933,0082,4.12,6.86,8.0000,31.0000
1983-05-05 03:00:00 UTC,2445459.625000,29.6633,-93.3933,0082,4.36,6.71,8.0000,33.0000
1983-05-05 03:30:00 UTC,2445459.645833,29.6633,-93.3933,0082,5.54,7.09,9.0000,38.0000
1983-05-05 04:00:00 UTC,2445459.666667,29.6633,-93.3933,0082,5.25,6.04,8.0000,41.0000
1983-05-05 04:30:00 UTC,2445459.687500,29.6633,-93.3933,0082,5.35,5.95,8.0000,42.0000
1983-05-05 05:00:00 UTC,2445459.708333,29.6633,-93.3933,0082,5.35,5.95,8.0000,42.0000
1983-05-05 05:30:00 UTC,2445459.729167,29.6633,-93.3933,0082,5.35,5.95,8.0000,42.0000
1983-05-05 06:00:00 UTC,2445459.750000,29.6633,-93.3933,0082,6.02,6.69,9.0000,42.0000
1983-05-05 06:30:00 UTC,2445459.770833,29.6633,-93.3933,0082,6.36,6.36,9.0000,45.0000
1983-05-05 07:00:00 UTC,2445459.791667,29.6633,-93.3933,0082,7.55,6.56,10.0000,49.0000
1983-05-05 07:30:00 UTC,2445459.812500,29.6633,-93.3933,0082,8.78,6.62,11.0000,53.0000
1983-05-05 08:00:00 UTC,2445459.833333,29.6633,-93.3933,0082,9.01,6.31,11.0000,55.0000
1983-05-05 08:30:00 UTC,2445459.854167,29.6633,-93.3933,0082,7.99,6.02,10.0000,53.0000
1983-05-05 09:00:00 UTC,2445459.875000,29.6633,-93.3933,0082,7.66,6.43,10.0000,50.0000
1983-05-05 09:30:00 UTC,2445459.895833,29.6633,-93.3933,0082,6.47,6.25,9.0000,46.0000
1983-05-05 10:00:00 UTC,2445459.916667,29.6633,-93.3933,0082,6.25,6.47,9.0000,44.0000
1983-05-05 10:30:00 UTC,2445459.937500,29.6633,-93.3933,0082,5.56,5.75,8.0000,44.0000
1983-05-05 11:00:00 UTC,2445459.958333,29.6633,-93.3933,0082,5.66,5.66,8.0000,45.0000
1983-05-05 11:30:00 UTC,2445459.979167,29.6633,-93.3933,0082,6.02,6.69,9.0000,42.0000
1983-05-05 12:00:00 UTC,2445460.000000,29.6633,-93.3933,0082,4.81,6.39,8.0000,37.0000
1983-05-05 12:30:00 UTC,2445460.020833,29.6633,-93.3933,0082,4.00,6.93,8.0000,30.0000
1983-05-05 13:00:00 UTC,2445460.041667,29.6633,-93.3933,0082,3.51,7.19,8.0000,26.0000
1983-05-05 13:30:00 UTC,2445460.062500,29.6633,-93.3933,0082,3.63,7.13,8.0000,27.0000
1983-05-05 14:00:00 UTC,2445460.083333,29.6633,-93.3933,0082,3.29,6.18,7.0000,28.0000
1983-05-05 14:30:00 UTC,2445460.104167,29.6633,-93.3933,0082,3.39,6.12,7.0000,29.0000
1983-05-05 15:00:00 UTC,2445460.125000,29.6633,-93.3933,0082,2.82,5.30,6.0000,28.0000
1983-05-05 15:30:00 UTC,2445460.145833,29.6633,-93.3933,0082,1.82,3.56,4.0000,27.0000
1983-05-05 16:00:00 UTC,2445460.166667,29.6633,-93.3933,0082,1.36,2.67,3.0000,27.0000
1983-05-05 16:30:00 UTC,2445460.187500,29.6633,-93.3933,0082,1.82,3.56,4.0000,27.0000
1983-05-05 17:00:00 UTC,2445460.208333,29.6633,-93.3933,0082,2.27,4.46,5.0000,27.0000
1983-05-05 17:30:00 UTC,2445460.229167,29.6633,-93.3933,0082,2.27,4.46,5.0000,27.0000
1983-05-05 18:00:00 UTC,2445460.250000,29.6633,-93.3933,0082,2.19,4.49,5.0000,26.0000
1983-05-05 18:30:00 UTC,2445460.270833,29.6633,-93.3933,0082,2.42,4.37,5.0000,29.0000
1983-05-05 19:00:00 UTC,2445460.291667,29.6633,-93.3933,0082,4.39,4.09,6.0000,47.0000
1983-05-05 19:30:00 UTC,2445460.312500,29.6633,-93.3933,0082,5.80,1.55,6.0000,75.0000
1983-05-05 20:00:00 UTC,2445460.333333,29.6633,-93.3933,0082,6.89,-1.22,7.0000,100.0000
1983-05-05 20:30:00 UTC,2445460.354167,29.6633,-93.3933,0082,5.87,-3.81,7.0000,123.0000
1983-05-05 21:00:00 UTC,2445460.375000,29.6633,-93.3933,0082,3.81,-5.87,7.0000,147.0000
1983-05-05 21:30:00 UTC,2445460.395833,29.6633,-93.3933,0082,1.34,-6.87,7.0000,169.0000
1983-05-05 22:00:00 UTC,2445460.416667,29.6633,-93.3933,0082,0.10,-6.00,6.0000,179.0000
1983-05-05 22:30:00 UTC,2445460.437500,29.6633,-93.3933,0082,0.00,-6.00,6.0000,180.0000
1983-05-05 23:00:00 UTC,2445460.458333,29.6633,-93.3933,0082,0.00,-7.00,7.0000,180.0000
1983-05-05 23:30:00 UTC,2445460.479167,29.6633,-93.3933,0082,-0.10,-6.00,6.0000,181.0000
1983-05-06 00:00:00 UTC,2445460.500000,29.6633,-93.3933,0082,-0.10,-6.00,6.0000,181.0000
1983-05-06 00:30:00 UTC,2445460.520833,29.6633,-93.3933,0082,-0.10,-6.00,6.0000,181.0000
1983-05-06 01:00:00 UTC,2445460.541667,29.6633,-93.3933,0082,-0.10,-6.00,6.0000,181.0000
1983-05-06 01:30:00 UTC,2445460.562500,29.6633,-93.3933,0082,-0.12,-7.00,7.0000,181.0000
1983-05-06 02:00:00 UTC,2445460.583333,29.6633,-93.3933,0082,-0.12,-7.00,7.0000,181.0000
1983-05-06 02:30:00 UTC,2445460.604167,29.6633,-93.3933,0082,-0.12,-7.00,7.0000,181.0000
1983-05-06 03:00:00 UTC,2445460.625000,29.6633,-93.3933,0082,-0.21,-6.00,6.0000,182.0000
1983-05-06 03:30:00 UTC,2445460.645833,29.6633,-93.3933,0082,-0.35,-4.99,5.0000,184.0000
1983-05-06 04:00:00 UTC,2445460.666667,29.6633,-93.3933,0082,-0.28,-3.99,4.0000,184.0000
1983-05-06 04:30:00 UTC,2445460.687500,29.6633,-93.3933,0082,-0.21,-2.99,3.0000,184.0000
1983-05-06 05:00:00 UTC,2445460.708333,29.6633,-93.3933,0082,-0.14,-2.00,2.0000,184.0000
1983-05-06 05:30:00 UTC,2445460.729167,29.6633,-93.3933,0082,-0.07,-1.00,1.0000,184.0000
1983-05-06 06:00:00 UTC,2445460.750000,29.6633,-93.3933,0082,-0.10,-2.00,2.0000,183.0000
1983-05-06 06:30:00 UTC,2445460.770833,29.6633,-93.3933,0082,-0.26,-4.99,5.0000,183.0000
1983-05-06 07:00:00 UTC,2445460.791667,29.6633,-93.3933,0082,0.61,-6.97,7.0000,175.0000
1983-05-06 07:30:00 UTC,2445460.812500,29.6633,-93.3933,0082,1.87,-8.80,9.0000,168.0000
1983-05-06 08:00:00 UTC,2445460.833333,29.6633,-93.3933,0082,0.77,-10.97,11.0000,176.0000
1983-05-06 08:30:00 UTC,2445460.854167,29.6633,-93.3933,0082,-2.03,-12.84,13.0000,189.0000
1983-05-06 09:00:00 UTC,2445460.875000,29.6633,-93.3933,0082,-5.02,-13.07,14.0000,201.0000
1983-05-06 09:30:00 UTC,2445460.895833,29.6633,-93.3933,0082,-7.62,-11.74,14.0000,213.0000
1983-05-06 10:00:00 UTC,2445460.916667,29.6633,-93.3933,0082,-9.03,-9.35,13.0000,224.0000
1983-05-06 10:30:00 UTC,2445460.937500,29.6633,-93.3933,0082,-8.55,-6.92,11.0000,231.0000
1983-05-06 11:00:00 UTC,2445460.958333,29.6633,-93.3933,0082,-7.55,-6.56,10.0000,229.0000
1983-05-06 11:30:00 UTC,2445460.979167,29.6633,-93.3933,0082,-7.19,-6.95,10.0000,226.0000
1983-05-06 12:00:00 UTC,2445461.000000,29.6633,-93.3933,0082,-7.77,-6.29,10.0000,231.0000
1983-05-06 12:30:00 UTC,2445461.020833,29.6633,-93.3933,0082,-8.83,-4.69,10.0000,242.0000
1983-05-06 13:00:00 UTC,2445461.041667,29.6633,-93.3933,0082,-7.79,-1.80,8.0000,257.0000
1983-05-06 13:30:00 UTC,2445461.062500,29.6633,-93.3933,0082,-6.95,-0.85,7.0000,263.0000
1983-05-06 14:00:00 UTC,2445461.083333,29.6633,-93.3933,0082,-4.64,-1.87,5.0000,248.0000
1983-05-06 14:30:00 UTC,2445461.104167,29.6633,-93.3933,0082,-2.46,-1.72,3.0000,235.0000
1983-05-06 15:00:00 UTC,2445461.125000,29.6633,-93.3933,0082,-1.46,-1.36,2.0000,227.0000
1983-05-06 15:30:00 UTC,2445461.145833,29.6633,-93.3933,0082,-1.31,-1.51,2.0000,221.0000
1983-05-06 16:00:00 UTC,2445461.166667,29.6633,-93.3933,0082,-0.64,-0.77,1.0000,220.0000
1983-05-06 16:30:00 UTC,2445461.187500,29.6633,-93.3933,0082,-1.26,-1.55,2.0000,219.0000
1983-05-06 17:00:00 UTC,2445461.208333,29.6633,-93.3933,0082,-2.46,-3.15,4.0000,218.0000
1983-05-06 17:30:00 UTC,2445461.229167,29.6633,-93.3933,0082,-3.78,-4.66,6.0000,219.0000
1983-05-06 18:00:00 UTC,2445461.250000,29.6633,-93.3933,0082,-5.56,-5.75,8.0000,224.0000
1983-05-06 18:30:00 UTC,2445461.270833,29.6633,-93.3933,0082,-6.39,-4.81,8.0000,233.0000
1983-05-06 19:00:00 UTC,2445461.291667,29.6633,-93.3933,0082,-7.79,-4.50,9.0000,240.0000
1983-05-06 19:30:00 UTC,2445461.312500,29.6633,-93.3933,0082,-8.09,-3.95,9.0000,244.0000
1983-05-06 20:00:00 UTC,2445461.333333,29.6633,-93.3933,0082,-7.31,-3.25,8.0000,246.0000
1983-05-06 20:30:00 UTC,2445461.354167,29.6633,-93.3933,0082,-4.64,-1.87,5.0000,248.0000
1983-05-06 21:00:00 UTC,2445461.375000,29.6633,-93.3933,0082,-1.87,-0.72,2.0000,249.0000
1983-05-06 21:30:00 UTC,2445461.395833,29.6633,-93.3933,0082,-0.93,-0.36,1.0000,249.0000
1983-05-06 22:00:00 UTC,2445461.416667,29.6633,-93.3933,0082,-0.93,-0.36,1.0000,249.0000
1983-05-06 22:30:00 UTC,2445461.437500,29.6633,-93.3933,0082,-1.85,-0.75,2.0000,248.0000
1983-05-06 23:00:00 UTC,2445461.458333,29.6633,-93.3933,0082,-2.93,-0.62,3.0000,258.0000
1983-05-06 23:30:00 UTC,2445461.479167,29.6633,-93.3933,0082,-1.34,1.49,2.0000,318.0000
1983-05-07 00:00:00 UTC,2445461.500000,29.6633,-93.3933,0082,2.83,2.83,4.0000,45.0000
1983-05-07 00:30:00 UTC,2445461.520833,29.6633,-93.3933,0082,5.14,3.09,6.0000,59.0000
1983-05-07 01:00:00 UTC,2445461.541667,29.6633,-93.3933,0082,3.53,1.88,4.0000,62.0000
1983-05-07 01:30:00 UTC,2445461.562500,29.6633,-93.3933,0082,2.84,0.98,3.0000,71.0000
1983-05-07 02:00:00 UTC,2445461.583333,29.6633,-93.3933,0082,3.99,-0.28,4.0000,94.0000
1983-05-07 02:30:00 UTC,2445461.604167,29.6633,-93.3933,0082,5.39,-2.63,6.0000,116.0000
1983-05-07 03:00:00 UTC,2445461.625000,29.6633,-93.3933,0082,6.02,-6.69,9.0000,138.0000
1983-05-07 03:30:00 UTC,2445461.645833,29.6633,-93.3933,0082,4.50,-11.13,12.0000,158.0000
1983-05-07 04:00:00 UTC,2445461.666667,29.6633,-93.3933,0082,3.53,-16.63,17.0000,168.0000
1983-05-07 04:30:00 UTC,2445461.687500,29.6633,-93.3933,0082,2.92,-20.80,21.0000,172.0000
1983-05-07 05:00:00 UTC,2445461.708333,29.6633,-93.3933,0082,2.40,-22.87,23.0000,174.0000
1983-05-07 05:30:00 UTC,2445461.729167,29.6633,-93.3933,0082,1.20,-22.97,23.0000,177.0000
1983-05-07 06:00:00 UTC,2445461.750000,29.6633,-93.3933,0082,-2.00,-22.91,23.0000,185.0000
1983-05-07 06:30:00 UTC,2445461.770833,29.6633,-93.3933,0082,-8.99,-21.17,23.0000,203.0000
1983-05-07 07:00:00 UTC,2445461.791667,29.6633,-93.3933,0082,-18.11,-15.75,24.0000,229.0000
1983-05-07 07:30:00 UTC,2445461.812500,29.6633,-93.3933,0082,-24.58,-8.46,26.0000,251.0000
1983-05-07 08:00:00 UTC,2445461.833333,29.6633,-93.3933,0082,-27.49,-5.34,28.0000,259.0000
1983-05-07 08:30:00 UTC,2445461.854167,29.6633,-93.3933,0082,-30.70,-4.31,31.0000,262.0000
1983-05-07 09:00:00 UTC,2445461.875000,29.6633,-93.3933,0082,-34.99,-0.61,35.0000,269.0000
1983-05-07 09:30:00 UTC,2445461.895833,29.6633,-93.3933,0082,-34.24,7.28,35.0000,282.0000
1983-05-07 10:00:00 UTC,2445461.916667,29.6633,-93.3933,0082,-29.66,14.47,33.0000,296.0000
1983-05-07 10:30:00 UTC,2445461.937500,29.6633,-93.3933,0082,-24.86,14.94,29.0000,301.0000
1983-05-07 11:00:00 UTC,2445461.958333,29.6633,-93.3933,0082,-20.67,10.08,23.0000,296.0000
1983-05-07 11:30:00 UTC,2445461.979167,29.6633,-93.3933,0082,-18.41,7.81,20.0000,293.0000
1983-05-07 12:00:00 UTC,2445462.000000,29.6633,-93.3933,0082,-16.04,8.17,18.0000,297.0000
1983-05-07 12:30:00 UTC,2445462.020833,29.6633,-93.3933,0082,-15.53,6.91,17.0000,294.0000
1983-05-07 13:00:00 UTC,2445462.041667,29.6633,-93.3933,0082,-15.59,3.60,16.0000,283.0000
1983-05-07 13:30:00 UTC,2445462.062500,29.6633,-93.3933,0082,-21.95,1.53,22.0000,274.0000
1983-05-07 14:00:00 UTC,2445462.083333,29.6633,-93.3933,0082,-29.98,1.05,30.0000,272.0000
1983-05-07 14:30:00 UTC,2445462.104167,29.6633,-93.3933,0082,-33.81,3.55,34.0000,276.0000
1983-05-07 15:00:00 UTC,2445462.125000,29.6633,-93.3933,0082,-29.31,10.09,31.0000,289.0000
1983-05-07 15:30:00 UTC,2445462.145833,29.6633,-93.3933,0082,-23.64,18.47,30.0000,308.0000
1983-05-07 16:00:00 UTC,2445462.166667,29.6633,-93.3933,0082,-18.88,23.31,30.0000,321.0000
1983-05-07 16:30:00 UTC,2445462.187500,29.6633,-93.3933,0082,-13.91,23.14,27.0000,329.0000
1983-05-07 17:00:00 UTC,2445462.208333,29.6633,-93.3933,0082,-9.38,22.09,24.0000,337.0000
1983-05-07 17:30:00 UTC,2445462.229167,29.6633,-93.3933,0082,-4.16,19.56,20.0000,348.0000
1983-05-07 18:00:00 UTC,2445462.250000,29.6633,-93.3933,0082,0.73,13.98,14.0000,3.0000
1983-05-07 18:30:00 UTC,2445462.270833,29.6633,-93.3933,0082,2.87,7.47,8.0000,21.0000
1983-05-07 19:00:00 UTC,2445462.291667,29.6633,-93.3933,0082,1.81,2.40,3.0000,37.0000
1983-05-07 19:30:00 UTC,2445462.312500,29.6633,-93.3933,0082,0.62,1.90,2.0000,18.0000
1983-05-07 20:00:00 UTC,2445462.333333,29.6633,-93.3933,0082,-3.08,3.94,5.0000,322.0000
1983-05-07 20:30:00 UTC,2445462.354167,29.6633,-93.3933,0082,-6.79,5.90,9.0000,311.0000
1983-05-07 21:00:00 UTC,2445462.375000,29.6633,-93.3933,0082,-5.79,6.89,9.0000,320.0000
1983-05-07 21:30:00 UTC,2445462.395833,29.6633,-93.3933,0082,-4.47,6.63,8.0000,326.0000
1983-05-07 22:00:00 UTC,2445462.416667,29.6633,-93.3933,0082,-7.09,5.54,9.0000,308.0000
1983-05-07 22:30:00 UTC,2445462.437500,29.6633,-93.3933,0082,-11.78,5.49,13.0000,295.0000
1983-05-07 23:00:00 UTC,2445462.458333,29.6633,-93.3933,0082,-15.13,5.21,16.0000,289.0000
1983-05-07 23:30:00 UTC,2445462.479167,29.6633,-93.3933,0082,-15.59,3.60,16.0000,283.0000
1983-05-08 00:00:00 UTC,2445462.500000,29.6633,-93.3933,0082,-15.71,3.05,16.0000,281.0000
1983-05-08 00:30:00 UTC,2445462.520833,29.6633,-93.3933,0082,-15.45,4.14,16.0000,285.0000
1983-05-08 01:00:00 UTC,2445462.541667,29.6633,-93.3933,0082,-13.39,4.09,14.0000,287.0000
1983-05-08 01:30:00 UTC,2445462.562500,29.6633,-93.3933,0082,-11.48,3.51,12.0000,287.0000
1983-05-08 02:00:00 UTC,2445462.583333,29.6633,-93.3933,0082,-10.80,2.10,11.0000,281.0000
1983-05-08 02:30:00 UTC,2445462.604167,29.6633,-93.3933,0082,-10.92,-1.34,11.0000,263.0000
1983-05-08 03:00:00 UTC,2445462.625000,29.6633,-93.3933,0082,-12.22,-4.45,13.0000,250.0000
1983-05-08 03:30:00 UTC,2445462.645833,29.6633,-93.3933,0082,-13.81,-5.86,15.0000,247.0000
1983-05-08 04:00:00 UTC,2445462.666667,29.6633,-93.3933,0082,-14.62,-6.51,16.0000,246.0000
1983-05-08 04:30:00 UTC,2445462.687500,29.6633,-93.3933,0082,-15.01,-7.98,17.0000,242.0000
1983-05-08 05:00:00 UTC,2445462.708333,29.6633,-93.3933,0082,-16.62,-9.21,19.0000,241.0000
1983-05-08 05:30:00 UTC,2445462.729167,29.6633,-93.3933,0082,-17.66,-9.39,20.0000,242.0000
1983-05-08 06:00:00 UTC,2445462.750000,29.6633,-93.3933,0082,-17.82,-9.08,20.0000,243.0000
1983-05-08 06:30:00 UTC,2445462.770833,29.6633,-93.3933,0082,-21.17,-8.99,23.0000,247.0000
1983-05-08 07:00:00 UTC,2445462.791667,29.6633,-93.3933,0082,-24.11,-9.74,26.0000,248.0000
1983-05-08 07:30:00 UTC,2445462.812500,29.6633,-93.3933,0082,-25.03,-10.11,27.0000,248.0000
1983-05-08 08:00:00 UTC,2445462.833333,29.6633,-93.3933,0082,-24.73,-8.03,26.0000,252.0000
1983-05-08 08:30:00 UTC,2445462.854167,29.6633,-93.3933,0082,-24.54,-4.77,25.0000,259.0000
1983-05-08 09:00:00 UTC,2445462.875000,29.6633,-93.3933,0082,-20.68,-3.65,21.0000,260.0000
1983-05-08 09:30:00 UTC,2445462.895833,29.6633,-93.3933,0082,-16.50,-4.11,17.0000,256.0000
1983-05-08 10:00:00 UTC,2445462.916667,29.6633,-93.3933,0082,-14.72,-2.86,15.0000,259.0000
1983-05-08 10:30:00 UTC,2445462.937500,29.6633,-93.3933,0082,-13.74,-2.67,14.0000,259.0000
1983-05-08 11:00:00 UTC,2445462.958333,29.6633,-93.3933,0082,-13.46,-3.86,14.0000,254.0000
1983-05-08 11:30:00 UTC,2445462.979167,29.6633,-93.3933,0082,-12.29,-4.23,13.0000,251.0000
1983-05-08 12:00:00 UTC,2445463.000000,29.6633,-93.3933,0082,-12.56,-3.36,13.0000,255.0000
1983-05-08 12:30:00 UTC,2445463.020833,29.6633,-93.3933,0082,-14.89,-1.83,15.0000,263.0000
1983-05-08 13:00:00 UTC,2445463.041667,29.6633,-93.3933,0082,-15.99,-0.56,16.0000,268.0000
1983-05-08 13:30:00 UTC,2445463.062500,29.6633,-93.3933,0082,-15.94,1.39,16.0000,275.0000
1983-05-08 14:00:00 UTC,2445463.083333,29.6633,-93.3933,0082,-13.07,5.02,14.0000,291.0000
1983-05-08 14:30:00 UTC,2445463.104167,29.6633,-93.3933,0082,-9.06,7.87,12.0000,311.0000
1983-05-08 15:00:00 UTC,2445463.125000,29.6633,-93.3933,0082,-3.36,4.97,6.0000,326.0000
1983-05-08 15:30:00 UTC,2445463.145833,29.6633,-93.3933,0082,-0.68,1.88,2.0000,340.0000
1983-05-08 16:00:00 UTC,2445463.166667,29.6633,-93.3933,0082,-0.28,0.96,1.0000,344.0000
1983-05-08 16:30:00 UTC,2445463.187500,29.6633,-93.3933,0082,-0.31,0.95,1.0000,342.0000
1983-05-08 17:00:00 UTC,2445463.208333,29.6633,-93.3933,0082,-0.00,0.00,0.0000,336.0000
1983-05-08 17:30:00 UTC,2445463.229167,29.6633,-93.3933,0082,-0.33,0.95,1.0000,341.0000
1983-05-08 18:00:00 UTC,2445463.250000,29.6633,-93.3933,0082,-0.98,2.84,3.0000,341.0000
1983-05-08 18:30:00 UTC,2445463.270833,29.6633,-93.3933,0082,0.10,3.00,3.0000,2.0000
1983-05-08 19:00:00 UTC,2445463.291667,29.6633,-93.3933,0082,5.44,-2.54,6.0000,115.0000
1983-05-08 19:30:00 UTC,2445463.312500,29.6633,-93.3933,0082,8.87,-9.51,13.0000,137.0000
1983-05-08 20:00:00 UTC,2445463.333333,29.6633,-93.3933,0082,8.03,-11.47,14.0000,145.0000
1983-05-08 20:30:00 UTC,2445463.354167,29.6633,-93.3933,0082,7.08,-10.90,13.0000,147.0000
1983-05-08 21:00:00 UTC,2445463.375000,29.6633,-93.3933,0082,6.18,-10.29,12.0000,149.0000
1983-05-08 21:30:00 UTC,2445463.395833,29.6633,-93.3933,0082,4.02,-12.36,13.0000,162.0000
1983-05-08 22:00:00 UTC,2445463.416667,29.6633,-93.3933,0082,0.73,-13.98,14.0000,177.0000
1983-05-08 22:30:00 UTC,2445463.437500,29.6633,-93.3933,0082,-4.79,-13.16,14.0000,200.0000
1983-05-08 23:00:00 UTC,2445463.458333,29.6633,-93.3933,0082,-12.04,-13.38,18.0000,222.0000
1983-05-08 23:30:00 UTC,2445463.479167,29.6633,-93.3933,0082,-18.02,-12.62,22.0000,235.0000
1983-05-09 00:00:00 UTC,2445463.500000,29.6633,-93.3933,0082,-19.94,-9.30,22.0000,245.0000
1983-05-09 00:30:00 UTC,2445463.520833,29.6633,-93.3933,0082,-18.35,-4.92,19.0000,255.0000
1983-05-09 01:00:00 UTC,2445463.541667,29.6633,-93.3933,0082,-15.91,-1.67,16.0000,264.0000
1983-05-09 01:30:00 UTC,2445463.562500,29.6633,-93.3933,0082,-13.98,0.73,14.0000,273.0000
1983-05-09 02:00:00 UTC,2445463.583333,29.6633,-93.3933,0082,-13.83,2.19,14.0000,279.0000
1983-05-09 02:30:00 UTC,2445463.604167,29.6633,-93.3933,0082,-14.62,3.37,15.0000,283.0000
1983-05-09 03:00:00 UTC,2445463.625000,29.6633,-93.3933,0082,-14.94,5.73,16.0000,291.0000
1983-05-09 03:30:00 UTC,2445463.645833,29.6633,-93.3933,0082,-13.86,8.00,16.0000,300.0000
1983-05-09 04:00:00 UTC,2445463.666667,29.6633,-93.3933,0082,-12.44,8.39,15.0000,304.0000
1983-05-09 04:30:00 UTC,2445463.687500,29.6633,-93.3933,0082,-13.24,7.04,15.0000,298.0000
1983-05-09 05:00:00 UTC,2445463.708333,29.6633,-93.3933,0082,-18.54,7.49,20.0000,292.0000
1983-05-09 05:30:00 UTC,2445463.729167,29.6633,-93.3933,0082,-19.33,8.21,21.0000,293.0000
1983-05-09 06:00:00 UTC,2445463.750000,29.6633,-93.3933,0082,-17.66,9.39,20.0000,298.0000
1983-05-09 06:30:00 UTC,2445463.770833,29.6633,-93.3933,0082,-19.03,8.87,21.0000,295.0000
1983-05-09 07:00:00 UTC,2445463.791667,29.6633,-93.3933,0082,-18.27,8.13,20.0000,294.0000
1983-05-09 07:30:00 UTC,2445463.812500,29.6633,-93.3933,0082,-13.86,8.00,16.0000,300.0000
1983-05-09 08:00:00 UTC,2445463.833333,29.6633,-93.3933,0082,-9.33,5.83,11.0000,302.0000
1983-05-09 08:30:00 UTC,2445463.854167,29.6633,-93.3933,0082,-9.51,3.09,10.0000,288.0000
1983-05-09 09:00:00 UTC,2445463.875000,29.6633,-93.3933,0082,-14.89,1.83,15.0000,277.0000
1983-05-09 09:30:00 UTC,2445463.895833,29.6633,-93.3933,0082,-18.65,3.63,19.0000,281.0000
1983-05-09 10:00:00 UTC,2445463.916667,29.6633,-93.3933,0082,-19.97,6.49,21.0000,288.0000
1983-05-09 10:30:00 UTC,2445463.937500,29.6633,-93.3933,0082,-18.79,6.84,20.0000,290.0000
1983-05-09 11:00:00 UTC,2445463.958333,29.6633,-93.3933,0082,-16.91,6.16,18.0000,290.0000
1983-05-09 11:30:00 UTC,2445463.979167,29.6633,-93.3933,0082,-18.67,7.17,20.0000,291.0000
1983-05-09 12:00:00 UTC,2445464.000000,29.6633,-93.3933,0082,-22.09,9.38,24.0000,293.0000
1983-05-09 12:30:00 UTC,2445464.020833,29.6633,-93.3933,0082,-20.67,10.08,23.0000,296.0000
1983-05-09 13:00:00 UTC,2445464.041667,29.6633,-93.3933,0082,-16.62,9.21,19.0000,299.0000
1983-05-09 13:30:00 UTC,2445464.062500,29.6633,-93.3933,0082,-16.31,7.61,18.0000,295.0000
1983-05-09 14:00:00 UTC,2445464.083333,29.6633,-93.3933,0082,-18.26,5.24,19.0000,286.0000
1983-05-09 14:30:00 UTC,2445464.104167,29.6633,-93.3933,0082,-16.74,2.95,17.0000,280.0000
1983-05-09 15:00:00 UTC,2445464.125000,29.6633,-93.3933,0082,-14.89,1.83,15.0000,277.0000
1983-05-09 15:30:00 UTC,2445464.145833,29.6633,-93.3933,0082,-15.96,1.12,16.0000,274.0000
1983-05-09 16:00:00 UTC,2445464.166667,29.6633,-93.3933,0082,-16.99,-0.59,17.0000,268.0000
1983-05-09 16:30:00 UTC,2445464.187500,29.6633,-93.3933,0082,-17.90,-1.88,18.0000,264.0000
1983-05-09 17:00:00 UTC,2445464.208333,29.6633,-93.3933,0082,-17.93,-1.57,18.0000,265.0000
1983-05-09 17:30:00 UTC,2445464.229167,29.6633,-93.3933,0082,-20.00,-0.00,20.0000,270.0000
1983-05-09 18:00:00 UTC,2445464.250000,29.6633,-93.3933,0082,-22.00,0.38,22.0000,271.0000
1983-05-09 18:30:00 UTC,2445464.270833,29.6633,-93.3933,0082,-22.00,-0.00,22.0000,270.0000
1983-05-09 19:00:00 UTC,2445464.291667,29.6633,-93.3933,0082,-20.00,-0.35,20.0000,269.0000
1983-05-09 19:30:00 UTC,2445464.312500,29.6633,-93.3933,0082,-18.00,-0.00,18.0000,270.0000
1983-05-09 20:00:00 UTC,2445464.333333,29.6633,-93.3933,0082,-15.00,0.26,15.0000,271.0000
1983-05-09 20:30:00 UTC,2445464.354167,29.6633,-93.3933,0082,-13.00,-0.00,13.0000,270.0000
1983-05-09 21:00:00 UTC,2445464.375000,29.6633,-93.3933,0082,-10.98,0.58,11.0000,273.0000
1983-05-09 21:30:00 UTC,2445464.395833,29.6633,-93.3933,0082,-12.76,2.48,13.0000,281.0000
1983-05-09 22:00:00 UTC,2445464.416667,29.6633,-93.3933,0082,-14.72,2.86,15.0000,281.0000
1983-05-09 22:30:00 UTC,2445464.437500,29.6633,-93.3933,0082,-17.00,0.30,17.0000,271.0000
1983-05-09 23:00:00 UTC,2445464.458333,29.6633,-93.3933,0082,-18.95,-1.33,19.0000,266.0000
1983-05-09 23:30:00 UTC,2445464.479167,29.6633,-93.3933,0082,-20.99,0.73,21.0000,272.0000
1983-05-10 00:00:00 UTC,2445464.500000,29.6633,-93.3933,0082,-21.97,1.15,22.0000,273.0000
1983-05-10 00:30:00 UTC,2445464.520833,29.6633,-93.3933,0082,-20.95,1.46,21.0000,274.0000
1983-05-10 01:00:00 UTC,2445464.541667,29.6633,-93.3933,0082,-17.67,3.43,18.0000,281.0000
1983-05-10 01:30:00 UTC,2445464.562500,29.6633,-93.3933,0082,-17.12,5.56,18.0000,288.0000
1983-05-10 02:00:00 UTC,2445464.583333,29.6633,-93.3933,0082,-18.13,8.45,20.0000,295.0000
1983-05-10 02:30:00 UTC,2445464.604167,29.6633,-93.3933,0082,-18.87,9.21,21.0000,296.0000
1983-05-10 03:00:00 UTC,2445464.625000,29.6633,-93.3933,0082,-16.57,7.03,18.0000,293.0000
1983-05-10 03:30:00 UTC,2445464.645833,29.6633,-93.3933,0082,-14.00,5.38,15.0000,291.0000
1983-05-10 04:00:00 UTC,2445464.666667,29.6633,-93.3933,0082,-10.88,5.07,12.0000,295.0000